FW0527 Weather Reports


Display with metric or nautical units.
time (UTC)temp
F
wind
direction
speed
MPH
gust
MPH
rain 1hr
in
rain 24hr
in
rain mn
in
humidity
%
barometer
mb
20260904224542 80 313 4.0 14.0 0.00 0.00 0.00 35 1011.9
20260904223048 81 281 1.0 7.0 0.00 0.00 0.00 32 1011.9
20260904221547 81 255 0.0 4.0 0.00 0.00 0.00 30 1012.2
20260904220041 82 273 0.0 13.0 0.00 0.00 0.00 28 1012.2
20260904214539 82 246 1.0 17.0 0.00 0.00 0.00 29 1012.3
20260904213033 84 288 4.0 12.0 0.00 0.00 0.00 27 1012.2
20260904211535 86 283 2.0 12.0 0.00 0.00 0.00 25 1012.3
20260904210028 86 170 0.0 9.0 0.00 0.00 0.00 22 1012.5
20260904204528 87 317 1.0 8.0 0.00 0.00 0.00 22 1012.4
20260904203030 87 237 0.0 4.0 0.00 0.00 0.00 20 1012.4
20260904201529 86 263 1.0 8.0 0.00 0.00 0.00 18 1012.5
20260904200019 86 234 0.0 3.0 0.00 0.00 0.00 18 1012.8
20260904194533 85 211 0.0 0.0 0.00 0.00 0.00 17 1012.9
20260904193032 84 194 1.0 8.0 0.00 0.00 0.00 17 1013.2
20260904191513 84 150 0.0 5.0 0.00 0.00 0.00 17 1013.3
20260904190010 83 195 0.0 8.0 0.00 0.00 0.00 17 1013.2
20260904184510 83 260 0.0 5.0 0.00 0.00 0.00 17 1013.3
20260904183008 82 159 0.0 0.0 0.00 0.00 0.00 18 1013.2
20260904181503 81 223 0.0 0.0 0.00 0.00 0.00 18 1013.5
20260904174559 80 215 0.0 0.0 0.00 0.00 0.00 20 1013.5
20260904173103 79 207 0.0 0.0 0.00 0.00 0.00 21 1013.4
20260904171552 78 197 0.0 0.0 0.00 0.00 0.00 22 1013.3
20260904170049 77 196 0.0 0.0 0.00 0.00 0.00 21 1013.1
20260904164546 76 190 0.0 0.0 0.00 0.00 0.00 20 1013.0
20260904163041 75 125 0.0 0.0 0.00 0.00 0.00 19 1012.9
20260904161544 71 122 0.0 0.0 0.00 0.00 0.00 20 1012.8
20260904160036 67 122 0.0 0.0 0.00 0.00 0.00 22 1012.6
20260904154528 62 122 0.0 0.0 0.00 0.00 0.00 24 1012.7
20260904153026 58 122 0.0 0.0 0.00 0.00 0.00 29 1012.7
20260904151533 55 122 0.0 0.0 0.00 0.00 0.00 38 1012.5
20260904150015 52 122 0.0 0.0 0.00 0.00 0.00 42 1012.3
20260904144512 51 121 0.0 0.0 0.00 0.00 0.00 47 1012.2
20260904143010 50 121 0.0 0.0 0.00 0.00 0.00 46 1012.0
20260904141509 49 278 0.0 0.0 0.00 0.00 0.00 45 1011.9
20260904140007 48 294 0.0 0.0 0.00 0.00 0.00 45 1011.7
20260904134506 48 294 0.0 0.0 0.00 0.00 0.00 51 1011.7
20260904133005 48 294 0.0 0.0 0.00 0.00 0.00 50 1011.7
20260904131503 49 294 0.0 0.0 0.00 0.00 0.00 49 1011.7
20260904130002 49 294 0.0 0.0 0.00 0.00 0.00 48 1011.3
20260904124501 49 294 0.0 0.0 0.00 0.00 0.00 49 1011.2
20260904123111 49 294 0.0 0.0 0.00 0.00 0.00 50 1011.1
20260904121657 50 294 0.0 0.0 0.00 0.00 0.00 49 1011.1
20260904120055 50 294 0.0 0.0 0.00 0.00 0.00 50 1011.3
20260904114555 50 294 0.0 0.0 0.00 0.00 0.00 48 1011.2
20260904113056 51 294 0.0 0.0 0.00 0.00 0.00 46 1011.3
20260904111553 51 294 0.0 0.0 0.00 0.00 0.00 44 1011.3
20260904110052 51 294 0.0 0.0 0.00 0.00 0.00 41 1011.3
20260904104552 50 294 0.0 0.0 0.00 0.00 0.00 38 1011.3
20260904103052 50 294 0.0 0.0 0.00 0.00 0.00 36 1011.2
20260904101549 50 294 0.0 0.0 0.00 0.00 0.00 34 1011.3
20260904100049 50 294 0.0 0.0 0.00 0.00 0.00 35 1011.3
20260904094547 50 294 0.0 0.0 0.00 0.00 0.00 36 1011.3
20260904093052 50 294 0.0 0.0 0.00 0.00 0.00 35 1011.3
20260904091543 50 294 0.0 0.0 0.00 0.00 0.00 38 1011.2
20260904090048 50 294 0.0 0.0 0.00 0.00 0.00 40 1011.4
20260904084538 50 294 0.0 0.0 0.00 0.00 0.00 44 1011.5
20260904083037 50 294 0.0 0.0 0.00 0.00 0.00 48 1011.8
20260904081533 50 294 0.0 0.0 0.00 0.00 0.00 49 1011.8
20260904080046 50 294 0.0 0.0 0.00 0.00 0.00 51 1011.9
20260904074533 50 294 0.0 0.0 0.00 0.00 0.00 48 1011.8
20260904073035 51 294 0.0 0.0 0.00 0.00 0.00 52 1011.9
20260904071526 51 294 0.0 0.0 0.00 0.00 0.00 51 1011.8
20260904070024 51 294 0.0 0.0 0.00 0.00 0.00 52 1011.7
20260904064524 51 294 0.0 0.0 0.00 0.00 0.00 55 1011.6
20260904063024 52 294 0.0 0.0 0.00 0.00 0.00 59 1011.6
20260904061525 52 294 0.0 0.0 0.00 0.00 0.00 64 1011.6
20260904060023 53 294 0.0 0.0 0.00 0.00 0.00 62 1011.5
20260904054522 53 294 0.0 0.0 0.00 0.00 0.00 66 1011.7
20260904053023 54 294 0.0 0.0 0.00 0.00 0.00 69 1011.5
20260904051529 55 294 0.0 0.0 0.00 0.00 0.00 74 1011.5
20260904050021 56 294 0.0 0.0 0.00 0.00 0.00 75 1011.5
20260904044534 56 294 0.0 0.0 0.00 0.00 0.00 75 1011.5
20260904043020 57 294 0.0 0.0 0.00 0.00 0.00 74 1011.4
20260904041532 57 294 0.0 0.0 0.00 0.00 0.00 73 1011.5
20260904040018 58 294 0.0 0.0 0.00 0.00 0.00 72 1011.6
20260904034517 58 294 0.0 0.0 0.00 0.00 0.00 70 1011.5
20260904033017 60 294 0.0 0.0 0.00 0.00 0.00 68 1011.6
20260904031515 61 299 0.0 0.0 0.00 0.00 0.00 65 1011.5
20260904030014 62 299 0.0 0.0 0.00 0.00 0.00 63 1011.3
20260904024514 63 299 0.0 0.0 0.00 0.00 0.00 62 1011.1
20260904023013 64 299 0.0 0.0 0.00 0.00 0.00 62 1011.0
20260904021516 65 299 0.0 0.0 0.00 0.00 0.00 62 1011.0
20260904020012 66 299 0.0 0.0 0.00 0.00 0.00 61 1010.9
20260904014511 67 306 0.0 0.0 0.00 0.00 0.00 60 1011.0
20260904013010 68 298 0.0 0.0 0.00 0.00 0.00 58 1011.1
20260904011508 69 308 0.0 9.0 0.00 0.00 0.00 56 1011.1
20260904010007 70 317 0.0 11.0 0.00 0.00 0.00 54 1011.1
20260904004508 71 311 0.0 9.0 0.00 0.00 0.00 50 1011.2
20260904003004 72 298 0.0 7.0 0.00 0.00 0.00 47 1011.2
20260904001502 73 273 0.0 3.0 0.00 0.00 0.00 44 1011.2
20260904000002 73 325 0.0 8.0 0.00 0.00 0.00 43 1011.3
20260903234600 74 315 3.0 9.0 0.00 0.00 0.00 43 1011.2
20260903233059 74 311 0.0 13.0 0.00 0.00 0.00 44 1011.3
20260903231611 75 290 0.0 8.0 0.00 0.00 0.00 43 1011.5
20260903230110 76 232 0.0 10.0 0.00 0.00 0.00 41 1011.5